星链-30539 (STARLINK-30539 )

导读

STARLINK-30539是美国太空探索技术公司(SpaceX)部署的星链互联网卫星,于2023年10月05日发射入轨,归属星链星座组网。星链系统旨在为全球提供高速低延迟宽带互联网服务,该卫星承担着补充星座容量、拓展全球网络覆盖范围的任务,属于SpaceX大规模星链组网进程中的一员,推进全球卫星互联网覆盖的实现。

基本信息
目录编号:
58004
目录名称:
STARLINK-30539
国际标识:
2023-153P
轨道中心:
EARTH
卫星名称:
星链-30539
卫星全名:
星链-30539 (STARLINK-30539 )
卫星状态:
在轨 (已飞行1072 天)
发射日期:
2023-10-05 UTC
国别 :
美国 (US)
星等 :
--
该卫星已列入 空间交会检测服务 Space Conjunction Data Service (SCDS) ,当前飞行风险评估等级: 高风险
轨道信息
数据来源 国际轨道数据
星历时间: 2026-09-11T06:59:00+0800
18小时前
查看轨道信息
半长轴: 6861.197km
偏心率: 0.0001263
轨道倾角: 43.007°
近地点辐角 266.276°
升交点赤经 100.509°
平近点角 93.795°
近地点: 482.193km
远地点: 483.927km
周期: 94.267分钟
每日圈数: 15.275766
详细信息
固有亮度:
5
最大亮度:
0.3
卫星平台:
Starlink v2.0 mini
覆盖范围:
全球
运营商:
太空探索技术公司
运营商所在国:
美国
制造商(研发单位):
太空探索技术公司
制造商所在国:
美国
使用方式:
暂无
卫星简介
星链(Starlink)计划是由太空探索技术公司(SpaceX)提出的一个巨型低轨卫星互联网星座项目,计划在2019年至2024年间在太空搭建由约1.2万颗卫星组成的“星链”网络,其中1584颗将部署在地球上空550千米处的近地轨道,并从2020年开始工作。该卫星仍在工作。
2D轨道图
3D轨道图
轨道高度分析图
轨道倾角分析图
轨道综合分析图
查看轨道综合分析图
与全量物体交会距离演化趋势
与全量物体交会风险概率演化趋势